Location: Ash Swamp
(41.5170°N, 74.6157°W)
Time: 16:02:58
(UTC+00:00)

Cosmos 2360 - Pass Details

Date: 14 July 2020
Orbit: 844 x 858 km, 70.8° (Epoch: 05 August)

Event Time Altitude Azimuth Distance (km) Brightness Sun altitude
Rises 07:41:58 0° 333° (NNW) 3,440 7.7 -17.1°
Reaches altitude 10° 07:44:27 10° 330° (NNW) 2,500 6.9 -16.8°
Maximum altitude 07:50:08 66° 250° (WSW) 932 4.2 -16.2°
Drops below altitude 10° 07:55:47 10° 169° (S) 2,481 6.3 -15.5°
Enters shadow 07:56:54 - 167° (SSE) 2,901 6.6 -15.3°
